Погода в Мозыре

Россия / Калининградская область     54°26′28″N   21°28′43″E
темп.,
°C
ветер,
м/с
пор.,
м/с
влажн.,
%
обл.,
%
осадки,
мм/ч
давл.,
гПа
погр.,
м
18 апреля, вс
вс1823:00+8всв349173 0.0 102171
02:00+7всв2493100 0.0 102165
05:00+6св249447 0.0 102172
08:00+10всв3683100 0.0 1021265
11:00+14в346787 0.0 1021891
14:00+17всв4659100 0.2 10201526
17:00+17всв466739 1.6 1019859
20:00+12св388778 2.6 1020141
19 апреля, пн
пн1923:00+9всв38913 0.0 1021158
02:00+8в35865 0.0 102180
05:00+6в34880 0.0 102177
08:00+10в35820 0.0 1021239
11:00+15в35575 0.1 10211489
14:00+14в3557100 0.1 1021824
17:00+13всв376086 0.0 1020466
20:00+9всв377629 0.1 1021126
20 апреля, вт
вт2023:00+7в378164 0.0 1021128
02:00+6в34905 0.0 102083
05:00+5в229156 0.0 101918
08:00+8св237588 0.0 1019247
11:00+12всв3461100 0.3 10171009
14:00+14с345274 0.6 10151561
17:00+11с357295 0.9 1014511
20:00+7сз358630 1.1 101490
21 апреля, ср
ср2123:00+5ссз22915 0.0 101320
02:00+4сз11955 0.0 101215
05:00+3зсз229536 0.0 101142
08:00+7зсз357771 0.0 1011308
11:00+12зсз45575 0.0 10091328
14:00+13зсз455185 0.1 10081890
17:00+12з45564 0.1 10081285
20:00+8зюз2275100 0.1 100713
22 апреля, чт
чт2223:00+6з489187 0.4 1007259
02:00+3зюз2796100 1.4 1008446
05:00+2юз5138817 0.1 1007693
08:00+4юз7128395 0.1 10081266
11:00+6юз7127297 0.1 10091459
14:00+7юз81376100 0.8 10091488
17:00+5зюз599098 1.6 1010944
20:00+3юз4108588 2.4 1010431